RADUGA-1M 3

Last updated on Thu Nov 21 2024 00:02:42 GMT+0000 (Coordinated Universal Time)

1 39375U 13062A 24325.44510395 .00000156 00000+0 00000+0 0 9996 2 39375 4.4997 79.3609 0002820 311.1041 224.7371 1.00273229 40375
UTC large
Height (km)
Speed (km/s)
/
Latitude / Longitude
Inclination (degrees)
Orbital Period (minutes)
Azimuth
Elevation
Range (km)
Doppler Factor

Next 0 passes for location: London (51.5072 / 0.1276)

Sorry there are no passes over London.